Regional Weather Roundup
Issued by NWS

Home | Current Version | Previous Version | Graphics & Text | Print | Product List | Glossary On
Versions: 1 2 3 4 5 6 7 8 9 10 11 12 13 14 15 16 17 18 19 20 21 22 23 24 25 26 27 28 29 30 31 32 33 34 35 36 37 38 39 40 41 42 43 44 45 46 47 48 49 50
000
ASUS43 KMKX 012300
RWRWI

WISCONSIN REGIONAL WEATHER ROUNDUP
NATIONAL WEATHER SERVICE MILWAUKEE/SULLIVAN WI
600 PM CDT SUN MAY 01 2016

NOTE: "FAIR" INDICATES FEW OR NO CLOUDS BELOW 12,000 FEET WITH NO
SIGNIFICANT WEATHER AND/OR OBSTRUCTIONS TO VISIBILITY.

WIZ001-002-006>008-014>016-023>028-020000-
NORTHWEST WISCONSIN

CITY           SKY/WX    TMP DP  RH WIND       PRES   REMARKS
SUPERIOR ARPT  SUNNY     47  36  64 NE9       30.19F
ASHLAND        SUNNY     51  36  56 NE14      30.18S
HAYWARD        SUNNY     57  34  41 NE14      30.12S
SIREN          SUNNY     61  27  27 NE9G17    30.11S
CUMBERLAND     SUNNY     59  32  36 N9        30.09S
RICE LAKE      PTSUNNY   63  33  32 N13       30.09S
CHETEK         CLOUDY    61  37  41 N6        30.07S
LADYSMITH      CLOUDY    61  34  35 NE12      30.08S
EAU CLAIRE     NOT AVBL
MENOMONIE      PTSUNNY   64  30  28 CALM      30.06S
NEW RICHMOND   MOSUNNY   60  31  34 N6        30.09F
OSCEOLA        MOSUNNY   61  31  32 NE9       30.12S
$$

WIZ003>005-009-010-017-018-020000-
NORTH CENTRAL WISCONSIN

CITY           SKY/WX    TMP DP  RH WIND       PRES   REMARKS
MANITOWISH WTR PTSUNNY   57  34  41 NE12      30.09S
ARBOR VITAE    CLOUDY    59  32  35 NE7       30.09R
WOODRUFF       CLOUDY    59  32  35 NE7       30.09R
RHINELANDER    CLOUDY    58  28  32 E7        30.08S
EAGLE RIVER    MOSUNNY   57  26  30 NE9       30.08R
LAND O LAKES   PTSUNNY   58  30  34 N9        30.10S
PHILLIPS       CLOUDY    59  31  35 NE8       30.07S
TOMAHAWK       CLOUDY    59  27  29 NE7       30.07S
MEDFORD        PTSUNNY   60  31  33 E6        30.04F
MERRILL        CLOUDY    60  32  34 E10       30.06S
$$

WIZ029-030-035-036-043>047-020000-
CENTRAL WISCONSIN

CITY           SKY/WX    TMP DP  RH WIND       PRES   REMARKS
WAUSAU         CLOUDY    61  30  31 E14       30.04S
MOSINEE        NOT AVBL
MARSHFIELD     CLOUDY    59  34  39 SE8       30.05S
STEVENS POINT  MOSUNNY   55  33  43 E15       30.06S
WAUPACA        MOSUNNY   58  35  41 E13G21    30.08S
WAUTOMA        CLOUDY    56  35  45 NE17G23   30.06S
WISC RAPIDS    CLOUDY    58  29  33 E15G22    30.07R
CAMP DOUGLAS   NOT AVBL
$$

WIZ011>013-019>022-031-037>040-048>050-020000-
NORTHEAST WISCONSIN

CITY           SKY/WX    TMP DP  RH WIND       PRES   REMARKS
ANTIGO         MOSUNNY   56  33  41 E13       30.07S
SHAWANO        SUNNY     60  33  36 E10G16    30.09R
OCONTO         SUNNY     55  37  51 NE10      30.09S
STURGEON BAY   SUNNY     54  37  54 E10G16    30.12S
GREEN BAY      SUNNY     55  40  56 NE17      30.09R
MANITOWOC      CLOUDY    48  37  66 MISG      30.09R
APPLETON       MOSUNNY   55  36  47 E16G23    30.07R
CLINTONVILLE   MOSUNNY   57  32  38 E15       30.08R
OSHKOSH        CLOUDY    53  40  61 E15       30.06R
$$

WIZ032>034-041-042-053>061-020000-
SOUTHWEST WISCONSIN

CITY           SKY/WX    TMP DP  RH WIND       PRES   REMARKS
LA CROSSE      CLOUDY    59  34  39 E7        30.06R
SPARTA         CLOUDY    58  34  40 E7        30.06S
VIROQUA        CLOUDY    53  42  65 NE3       30.05S
BOSCOBEL       LGT RAIN  52  48  86 CALM      30.06R
PRAIRIE DU CHI DRIZZLE   49  46  88 NW5       30.06R
PLATTEVILLE    CLOUDY    52  48  87 N10       30.01S
$$

WIZ056-057-062-063-064-067-068-020000-
SOUTH CENTRAL WISCONSIN

CITY           SKY/WX    TMP DP  RH WIND       PRES   REMARKS
REEDSBURG      CLOUDY    54  38  54 E6        30.04S
BARABOO/DELLS  DRIZZLE   53  38  56 NE9       30.04S
LONE ROCK      NOT AVBL
MINERAL POINT  CLOUDY    52  46  82 N7        30.01S
MADISON        CLOUDY    55  41  59 NE14G22   30.01S
MIDDLETON      CLOUDY    56  42  59 NE13G21   30.01F
WATERTOWN      CLOUDY    53  42  66 NE13      30.02F
MONROE         CLOUDY    54  43  66 NE12      29.99R
JANESVILLE     CLOUDY    55  45  67 E14       29.99S
$$

WIZ051-052-058>065-066-070>072-020000-
SOUTHEAST WISCONSIN

CITY           SKY/WX    TMP DP  RH WIND       PRES   REMARKS
MILWAUKEE      DRIZZLE   43  41  93 N14       30.03S FOG
WAUKESHA       PTSUNNY   46  39  76 E12G23    30.04F
MILWAUKEE/TIMM CLOUDY    48  37  66 NE10      30.05F
RACINE         CLOUDY    45  41  86 N13       30.03F
BURLINGTON     CLOUDY    47  41  78 NE10      30.00F
KENOSHA        CLOUDY    48  43  82 NE12      30.01F
FOND DU LAC    CLOUDY    54  40  59 NE14      30.06S
SHEBOYGAN      CLOUDY    47  40  76 NE13      30.07S
WEST BEND      CLOUDY    48  39  71 NE15      30.05S
JUNEAU         PTSUNNY   52  41  65 NE14      30.04F
$$

LSZ147-162-020000-
LAKE SUPERIOR

STATION/POSITION TIME  TEMP    WIND        PRES    WAVE
                       AIR SEA DIR/SP/G            HT/PER
                 (UTC) (F)     (DEG/KT/KT) (MB)    (FT/S)
W MID LAKE BUOY  2150   39 37   60/  6/  8 1022.8F   2/ 5
DEVILS ISLAND    2200   38      30/  4/  5 1023.1F
SAXON HARBOR     2200   40     350/  5/  7 1021.7F
$$

LMZ867-665-643>646-020000-
LAKE MICHIGAN

STATION/POSITION TIME  TEMP    WIND        PRES    WAVE
                       AIR SEA DIR/SP/G            HT/PER
                 (UTC) (F)     (DEG/KT/KT) (MB)    (FT/S)
CHAMBERS ISLAND  2240   48      30/  7/  9 1019.3F
N MID LAKE BUOY  2150   43 39   30/  6/  6 1019.4F   1
NORTHPORT PIER   2200   48     120/  2/  3 1019.3F
KEWAUNEE LAKESHO 2200   45      30/ 11/ 16 1018.0F
SHEBOYGAN LAKESH 2200   43      20/ 16/ 18 1018.9R
PORT WASHINGTON  2200   47      30/  8/ 14 1018.6R
S MID LAKE BUOY  2150   41 40   20/  8/ 10 1016.6R   2/ 5
KENOSHA   LAKESH 2200   45     360/ 14/ 17 1016.6F
$$

TC  - TEMPERATURE IN CELSIUS
VSB - VISIBILITY IN STATUTE MILES
WCI - WIND CHILL INDEX
HX  - HEAT INDEX





USA.gov is the U.S. government's official web portal to all federal, state and local government web resources and services.